Regional Weather Roundup
Issued by NWS Sterling, VA

Home | Current Version | Previous Version | Text Only | Print | Product List | Glossary Off
Versions: 1 2 3 4 5 6 7 8 9 10 11 12 13 14 15 16 17 18 19 20 21 22 23 24 25 26 27 28

000
ASUS41 KLWX 060810
RWRLWX

REGIONAL WEATHER ROUNDUP
NATIONAL WEATHER SERVICE BALTIMORE MD/WASHINGTON DC
300 AM EST TUE DEC 06 2016

Note: "FAIR" indicates few or no clouds below 12,000 feet
with no significant weather and/or obstructions to visibility.
 TC=TEMPERATURE CELSIUS

 * =Non NWS site. Station does not report precipitation (e.g. rain,
    snow, etc.), thunder, or fog.

DCZ001-MDZ009-015-VAZ040>042-051-053>054-060900-
WASHINGTON METRO

CITY           SKY/WX    TMP DP  RH WIND       PRES   REMARKS
WASHINGTON NAT CLOUDY    44  33  65 NE7       30.14R
DULLES         CLOUDY    41  30  65 CALM      30.13R
ANDREWS AFB    CLOUDY    40  31  70 NE5       30.12R
FT BELVOIR     CLOUDY    43  30  60 CALM      30.13R
QUANTICO       PTCLDY    46  34  62 NE10      30.14R
LEESBURG*      MOCLDY    37  36  93 MISG      30.14R
MANASSAS*      CLOUDY    39  36  87 N5        30.13R
GAITHERSBURG*  CLOUDY    36  28  75 CALM      30.16S

$$

MDZ006>007-011-014-060900-
BALTIMORE METRO

CITY           SKY/WX    TMP DP  RH WIND       PRES   REMARKS
BWI AIRPORT    CLOUDY    42  31  64 CALM      30.12S
MD SCIENCE CTR   N/A     44  29  55 MISG      30.13S
ANNAPOLIS      CLOUDY    45  34  65 N6        30.12S

$$

MDZ012-015-019>023-060900-
MARYLAND EASTERN SHORE

CITY           SKY/WX    TMP DP  RH WIND       PRES   REMARKS
OCEAN CITY     PTCLDY    46  35  65 N9        30.12R
SALISBURY      PTCLDY    42  35  76 N5        30.12R
EASTON*        CLOUDY    41  33  74 NE3       30.16R

$$

MDZ017>025-060900-
SOUTHERN MARYLAND

CITY           SKY/WX    TMP DP  RH WIND       PRES   REMARKS
PATUXENT RIVER PTCLDY    44  33  65 NE13      30.12R
ST INIGOES     MOCLDY    45  34  65 NE7       30.11R
LEONARDTOWN*   NOT AVBL

$$

MDZ003>005-060900-
NORTH CENTRAL MARYLAND

CITY           SKY/WX    TMP DP  RH WIND       PRES   REMARKS
FREDERICK*     NOT AVBL
HAGERSTOWN APT PTCLDY    36  28  73 W5        30.11F
WESTMINSTER*   NOT AVBL

$$

MDZ501>502-060900-
WESTERN MARYLAND

CITY           SKY/WX    TMP DP  RH WIND       PRES   REMARKS
OAKLAND*       NOT AVBL
CUMBERLAND*    NOT AVBL

$$

VAZ025>031-060900-
SHENANDOAH VALLEY

CITY           SKY/WX    TMP DP  RH WIND       PRES   REMARKS
WINCHESTER*    CLOUDY    32  30  93 CALM      30.11S
FRONT ROYAL*   FAIR      37  32  81 CALM      30.11R
LURAY*         FAIR      41  32  70 N6        30.09S
NEW MARKET*    FAIR      39  30  69 N5        30.08S
STAUNTON*      CLOUDY    39  34  83 CALM      30.08F
WAYNESBORO*    CLOUDY    42  33  73 E5        30.06F

$$

WVZ021-048>050-054>055-060900-
EASTERN WEST VIRGINIA PANHANDLE

CITY           SKY/WX    TMP DP  RH WIND       PRES   REMARKS
MARTINSBURG    CLOUDY    33  30  88 CALM      30.12R
PETERSBURG*    PTCLDY    38  35  88 CALM      30.09F

$$

VAZ036>039-050-060900-
CENTRAL FOOTHILLS

CITY           SKY/WX    TMP DP  RH WIND       PRES   REMARKS
CHARLOTTESVILL MOCLDY    44  35  70 NE3       30.10S
CULPEPER*      CLOUDY    41  35  78 CALM      30.13S
ORANGE*          N/A     43  34  70 CALM      30.13S
GORDONSVILLE*  FAIR      42  36  80 E3        30.11S
WARRENTON*     FAIR      41  31  68 CALM      30.12R

$$

VAZ055>057-060900-
NORTH AND CENTRAL PIEDMONT

CITY           SKY/WX    TMP DP  RH WIND       PRES   REMARKS
FREDERICKSBRG* CLOUDY    44  36  72 CALM      30.13R
STAFFORD*      PTCLDY    42  33  70 CALM      30.16S

$$

NCZ024-NYZ072-PAZ021-071-VAZ022-071-060900-
OTHER REGIONAL OBSERVATIONS

CITY           SKY/WX    TMP DP  RH WIND       PRES   REMARKS
NEW YORK CITY  CLEAR     40  28  62 W3        30.14S
PHILADELPHIA   MOCLDY    39  30  70 N7        30.15R
PITTSBURGH     CLOUDY    35  28  75 E9        30.00F WCI  28
ROANOKE        CLOUDY    46  43  89 E7        30.06S
RICHMOND       CLOUDY    44  41  89 CALM      30.11S
RALEIGH        LGT RAIN  47  44  90 E14       30.01F

$$

ANZ530>537-060900-
MARINE OBSERVATIONS

STATION/POSITION TIME  TEMP    WIND        PRES
                       AIR SEA DIR/SP/G
                 (UTC) (F)     (DEG/KT/KT) (MB)
THOMAS PT LIGHT  0800   45 49   30/ 15/ 17   N/A
BALT KEY BRIDGE  0748   43      10/  4/  5 1020.3S
COVE POINT       0748   45      40/ 14/ 16 1020.6R
LEWISETTA        0748   46 49   60/  8/ 10 1019.6R
SOLOMONS ISLAND  0748   45 51   30/  8/ 10   N/A
PINEY POINT      0748           70/  5/  6   N/A

$$





USA.gov is the U.S. government's official web portal to all federal, state and local government web resources and services.